Regional Weather Roundup
Issued by NWS

Home | Current Version | Previous Version | Text Only | Print | Product List | Glossary Off
Versions: 1 2 3 4 5 6 7 8 9 10 11 12 13 14 15 16 17 18 19 20 21 22 23 24 25 26 27 28 29 30 31 32 33 34 35 36 37 38 39 40 41 42 43 44 45 46 47 48 49 50

000
ASUS43 KTOP 031059
RWRKS

WEATHER ROUNDUP FOR KANSAS
NATIONAL WEATHER SERVICE GOODLAND KS
600 AM CDT MON AUG 03 2015

NOTE:  "FAIR" INDICATES FEW OR NO CLOUDS BELOW 12,000 FEET WITH NO
SIGNIFICANT WEATHER AND/OR OBSTRUCTIONS TO VISIBILITY.

KSZ001>006-013>018-027>032-041>047-031200-
NORTHWEST KANSAS

CITY           SKY/WX    TMP DP  RH WIND       PRES   REMARKS
GOODLAND       MOCLDY    63  58  83 W3        30.00S
HAYS           CLEAR     66  59  77 S6        29.93S
HILL CITY      CLEAR     66  62  87 CALM      29.95R
RUSSELL        CLEAR     68  66  93 S8        29.91S
$$

KSZ061>065-074>080-084>089-031200-
SOUTHWEST KANSAS

CITY           SKY/WX    TMP DP  RH WIND       PRES   REMARKS
DODGE CITY     PTCLDY    67  65  93 S8        29.95R
ELKHART          N/A     68  62  81 SW5         N/A
GARDEN CITY    PTCLDY    68  65  90 S5        29.95S
GREAT BEND     CLEAR     68  63  83 CALM      29.92S
LIBERAL        MOCLDY    70  63  78 SW3       29.94F
$$

KSZ066>073-081>083-090>101-031200-
SOUTHEAST KANSAS

CITY           SKY/WX    TMP DP  RH WIND       PRES   REMARKS
CHANUTE        CLEAR     67  65  93 S6        29.93S
COFFEYVILLE    CLOUDY    69  67  93 CALM      29.94R
HUTCHINSON     CLEAR     69  66  90 E5        29.92S
MEDICINE LODGE   N/A     73  67  81 S5        29.92R
NEWTON         CLEAR     68  63  83 SE8       29.96R
PARSONS        CLEAR     67  66  97 CALM      29.95R
WICHITA INTL   PTCLDY    71  66  84 SE5       29.92R
WICHITA JABRA  CLEAR     69  66  90 SE5       29.93R
WINFIELD       MOCLDY    71  66  84 SE3       29.94R
$$

KSZ007>012-019>026-033>040-048>060-102>105-031200-
NORTHEAST KANSAS

CITY           SKY/WX    TMP DP  RH WIND       PRES   REMARKS
CONCORDIA      CLEAR     70  66  87 NW3       29.91R
EMPORIA        CLEAR     69  65  86 S8        29.92S
LAWRENCE       CLEAR     69  66  90 SE3       29.92R
MANHATTAN      CLEAR     71  68  90 CALM      29.90S
OLATHE IND     CLEAR     70  66  87 CALM      29.94R
OLATHE EXE     CLEAR     71  65  81 CALM      29.93R
SALINA         CLEAR     71  67  87 S7        29.90S
TOPEKA BILLARD CLEAR     72  69  90 E3        29.91R
TOPEKA FORBES  CLEAR     72  67  84 SE3       29.91S
$$


USA.gov is the U.S. government's official web portal to all federal, state and local government web resources and services.